Location: ???? ?????????
(44.3677°N, 135.2344°E)
Time: 07:39:18
(UTC+00:00)

Cosmos 1980 Rocket - Pass Details

Date: 19 May 2025
Orbit: 829 x 847 km, 71.0° (Epoch: 15 June)

Event Time Altitude Azimuth Distance (km) Brightness Sun altitude
Rises 14:02:06 0° 326° (NW) 3,381 6.5 -24.6°
Reaches altitude 10° 14:04:46 10° 316° (NW) 2,444 5.4 -24.7°
Maximum altitude 14:09:38 31° 256° (WSW) 1,410 3.3 -24.9°
Enters shadow 14:10:23 30° 240° (WSW) 1,444 3.2 -24.9°
